This is the latest recevied weather packets stored in our database for station/object ED1ZAI-14. If no packets are shown the sender has not sent any weather packets the latest 10 day(s).
| Time | Temp. | Humidity | Pressure | Rain* | Wind** | Luminosity | Snow |
|---|---|---|---|---|---|---|---|
| 1787947458 | 8.33° C | 100% | 813.6 hPa | - | - | - | - |
| 1787945658 | 8.33° C | 100% | 813.5 hPa | - | - | - | - |
| 1787943858 | 8.33° C | 100% | 813.3 hPa | - | - | - | - |
| 1787942058 | 8.89° C | 100% | 813.3 hPa | - | - | - | - |
| 1787940260 | 9.44° C | 100% | 813.5 hPa | - | - | - | - |
| 1787938461 | 10° C | 100% | 813.4 hPa | - | - | - | - |
| 1787936660 | 10.56° C | 100% | 813.3 hPa | - | - | - | - |
| 1787934860 | 10.56° C | 100% | 813.3 hPa | - | - | - | - |
| 1787933060 | 11.11° C | 100% | 813.1 hPa | - | - | - | - |
| 1787931260 | 11.67° C | 100% | 812.9 hPa | - | - | - | - |
| 1787929461 | 13.33° C | 100% | 812.7 hPa | - | - | - | - |
| 1787927660 | 12.78° C | 100% | 812.6 hPa | - | - | - | - |
| 1787925860 | 12.22° C | 100% | 812.6 hPa | - | - | - | - |
| 1787924060 | 11.67° C | 100% | 812.7 hPa | - | - | - | - |
| 1787922260 | 12.78° C | 100% | 812.5 hPa | - | - | - | - |
| 1787920460 | 13.89° C | 100% | 812.2 hPa | - | - | - | - |
| 1787918660 | 12.78° C | 100% | 812 hPa | - | - | - | - |
| 1787916860 | 12.22° C | 100% | 812.3 hPa | - | - | - | - |
| 1787915060 | 11.11° C | 100% | 812.3 hPa | - | - | - | - |
| 1787913259 | 9.44° C | 100% | 812.1 hPa | - | - | - | - |
| 1787911460 | 7.22° C | 100% | 812 hPa | - | - | - | - |
| 1787909659 | 7.22° C | 100% | 811.4 hPa | - | - | - | - |
| 1787907859 | 5.56° C | 100% | 811.2 hPa | - | - | - | - |
| 1787906059 | 4.44° C | 100% | 810.8 hPa | - | - | - | - |
| 1787904259 | 3.89° C | 100% | 810.4 hPa | - | - | - | - |
* Rain since midnight (hover to see other rain measurements)
** Current wind speed in m/s (hover to see current wind gust speed)